Вернуться в каталог

STARLINK-35581

АктивенСвязьVLEO
NORAD 66479·PAYLOAD·🇺🇸 United States

Запущен Nov 15, 2025 с Cape Canaveral Space Force Station

Loading…

Ближайшие Пролёты (ближайшие 24 часа)

TLE

СвежийSource: CelesTrak SupGP

Эпоха: Sep 14, 2026, 23:02 UTC

1 66479C 25262Z   26257.96020833  .00013379  00000+0  48458-3 0  2573
2 66479  43.0029 306.8748 0001635 266.2492 229.3886 15.27571190    11

Отслеживайте STARLINK-35581 в реальном времени с AllMySat

Download on the App Store